Lid_Strength_Index
9 8 8 10 11 8 11 12 13 11 9 7 6 6 6 5 5 5 4 4 4 3 3 2 2 2 2 2 2 1 1 1
9 8 8 9 8 12 11 15 15 13 12 11 8 7 6 6 5 5 4 4 4 3 3 2 2 2 1 1 2 1 1 1
10 11 11 11 11 10 10 12 14 15 13 7 7 6 6 5 5 4 4 4 3 3 3 2 2 2 2 2 2 2 1 1
11 9 8 9 10 10 12 13 12 12 13 7 6 5 5 5 5 4 3 3 3 3 2 2 2 2 2 2 2 1 1 1
12 10 10 10 10 10 10 10 12 14 13 7 6 6 5 5 4 4 4 3 3 3 3 3 3 2 2 2 2 1 1 1
13 12 12 12 11 10 10 12 12 12 11 9 7 7 5 4 4 5 4 4 3 3 3 3 2 2 2 2 1 1 1 2
13 13 12 12 12 12 12 10 12 11 10 9 7 6 5 4 4 4 4 4 4 4 3 3 3 2 2 2 2 1 2 2
14 13 12 13 12 12 11 11 11 11 10 7 6 5 5 4 4 4 4 4 3 3 3 3 3 3 2 2 2 1 2 2
16 13 13 14 12 11 11 10 10 12 9 7 7 7 5 5 4 4 4 4 3 3 3 3 3 2 2 2 1 2 2 2
15 14 17 11 9 8 10 10 9 9 9 8 7 5 4 4 4 4 3 3 3 3 2 2 2 2 2 2 2 2 2 2
16 15 13 12 10 10 10 9 7 8 8 7 6 6 5 4 3 3 3 3 2 2 2 2 2 2 2 2 2 2 2 2
15 17 18 11 9 7 8 12 8 8 7 7 6 9 7 3 3 3 3 2 2 2 2 2 2 1 2 3 2 3 2 2
16 16 14 10 7 7 14 11 7 7 7 7 8 6 4 4 3 2 2 2 2 2 2 2 1 2 3 2 3 2 1 1
14 16 18 9 7 10 9 7 7 7 7 7 6 6 5 5 4 3 3 2 2 2 2 2 2 2 3 3 2 1 1 2
11 13 9 8 7 6 6 7 6 6 6 6 7 6 5 5 4 3 3 3 2 2 3 2 2 2 3 2 1 2 2 2
10 8 8 7 6 5 5 6 5 5 5 6 7 6 5 5 4 4 4 4 3 3 4 4 3 2 2 2 1 2 2 2
10 9 8 6 5 5 5 5 5 5 5 6 6 5 5 5 5 5 4 4 4 4 4 4 3 3 2 2 1 2 2 2
11 7 7 7 5 5 5 5 5 5 6 6 5 5 5 5 5 4 4 4 4 4 4 3 3 3 2 2 1 2 3 3
7 5 6 5 6 6 5 5 5 5 6 7 5 5 6 6 5 6 4 4 4 4 3 3 3 3 2 2 2 2 3 3